Ketchikan, AK

8:45 AM AKST on November 13, 2018 (GMT -0900)
Ketchikan International

Weather History for PAKT - June, 2018

Change the Weather History Date:

Friday, June 8, 2018

  Actual Average Record
Temperature  
Mean Temperature 52 °F -  
Max Temperature 57 °F 61 °F 85 °F (1969)
Min Temperature 43 °F 45 °F 37 °F (2002)
Degree Days  
Heating Degree Days 14    
Growing Degree Days 2 (Base 50)    
Moisture  
Dew Point 44 °F    
Average Humidity 79    
Maximum Humidity 93    
Minimum Humidity 59    
Precipitation  
Precipitation 0.08 in - - ()
Sea Level Pressure  
Sea Level Pressure 29.86 in    
Wind  
Wind Speed 9 mph (SE)    
Max Wind Speed 17 mph    
Max Gust Speed 23 mph    
Visibility 10 miles    
Events Rain    
Averages and records for this station are not official NWS values.
T = Trace of Precipitation, MM = Missing Value Source: NWS Daily Summary

Daily Weather History Graph

Daily Weather History Graph

Search for Another Location

Airport or City:

Astronomy

Jun. 08, 2018 Rise Set
Actual Time 4:07 AM AKDT 9:25 PM AKDT
Civil Twilight 3:09 AM AKDT 10:23 PM AKDT
Nautical Twilight 1:18 AM AKDT 12:13 AM AKDT
Astronomical Twilight Sun does not rise Sun does not rise
Moon 2:20 AM AKDT (6/8) 2:39 PM AKDT (6/8)
Length of Visible Light 19h 13m
Length of Day
17h 17m
Waning Crescent, 30% of the Moon is Illuminated
Jun 8
Waning Crescent
Jun 13
New
Jun 20
First Quarter
Jun 27
Full
Jul 5
Last Quarter

Hourly Weather History & Observations

Time (AKDT) Temp. Windchill Dew Point Humidity Pressure Visibility Wind Dir Wind Speed Gust Speed Precip Events Conditions
12:35 AM 50.0 °F - 46.0 °F 86% 29.81 in 10.0 mi SE 11.5 mph - 0.00 in Rain Light Rain
12:53 AM 50.0 °F - 46.0 °F 86% 29.82 in 10.0 mi SE 12.7 mph - 0.00 in Rain Light Rain
1:53 AM 50.0 °F - 45.0 °F 83% 29.83 in 10.0 mi SSE 10.4 mph - 0.00 in   Overcast
2:27 AM 50.0 °F - 43.0 °F 77% 29.83 in 10.0 mi ESE 17.3 mph 23.0 mph N/A   Overcast
2:53 AM 48.0 °F - 43.0 °F 83% 29.83 in 10.0 mi SE 12.7 mph - 0.00 in   Overcast
3:53 AM 48.0 °F - 44.1 °F 86% 29.83 in 10.0 mi SSE 6.9 mph - N/A   Overcast
4:08 AM 48.9 °F - 44.1 °F 83% 29.83 in 10.0 mi SSE 6.9 mph - N/A   Overcast
4:53 AM 48.0 °F - 45.0 °F 89% 29.84 in 6.0 mi South 4.6 mph - 0.06 in Rain Light Rain
5:16 AM 48.0 °F - 45.0 °F 89% 29.84 in 8.0 mi South 5.8 mph - 0.01 in Rain Light Rain
5:53 AM 48.0 °F - 45.0 °F 89% 29.84 in 10.0 mi South 3.5 mph - 0.02 in   Overcast
6:07 AM 48.9 °F - 45.0 °F 86% 29.85 in 5.0 mi South 4.6 mph - 0.01 in Rain Rain
6:09 AM 48.2 °F - 44.6 °F 87% 29.85 in 5.0 mi SSE 8.1 mph - N/A Rain Rain
6:53 AM 48.2 °F - 42.8 °F 82% 29.86 in 10.0 mi South 5.8 mph - N/A   Overcast
7:53 AM 48.2 °F - 44.6 °F 87% 29.86 in 10.0 mi South 4.6 mph - N/A   Overcast
8:53 AM 51.8 °F - 44.6 °F 76% 29.86 in 10.0 mi SSE 5.8 mph - N/A   Overcast
9:53 AM 53.6 °F - 44.6 °F 72% 29.86 in 10.0 mi SE 5.8 mph - N/A   Overcast
10:53 AM 51.8 °F - 44.6 °F 76% 29.86 in 10.0 mi East 6.9 mph - N/A   Overcast
11:53 AM 51.8 °F - 44.6 °F 76% 29.87 in 10.0 mi ESE 6.9 mph - N/A   Overcast
12:53 PM 53.6 °F - 46.4 °F 77% 29.87 in 10.0 mi East 8.1 mph - N/A   Mostly Cloudy
1:53 PM 55.4 °F - 44.6 °F 67% 29.88 in 10.0 mi ESE 13.8 mph - N/A   Mostly Cloudy
2:53 PM 55.4 °F - 44.6 °F 67% 29.88 in 10.0 mi East 11.5 mph - N/A   Mostly Cloudy
3:53 PM 55.4 °F - 42.8 °F 63% 29.88 in 10.0 mi ESE 16.1 mph - N/A   Scattered Clouds
4:53 PM 57.2 °F - 42.8 °F 59% 29.88 in 10.0 mi ESE 15.0 mph - N/A   Scattered Clouds
5:53 PM 57.2 °F - 42.8 °F 59% 29.88 in 10.0 mi SE 12.7 mph - N/A   Scattered Clouds
6:53 PM 55.4 °F - 44.6 °F 67% 29.89 in 10.0 mi ESE 13.8 mph - N/A   Mostly Cloudy
7:53 PM 53.6 °F - 42.8 °F 67% 29.90 in 10.0 mi ESE 10.4 mph - N/A   Mostly Cloudy
8:53 PM 51.8 °F - 44.6 °F 76% 29.90 in 10.0 mi SE 4.6 mph - N/A   Scattered Clouds
9:53 PM 46.9 °F - 42.1 °F 83% 29.91 in 10.0 mi South 5.8 mph - N/A   Clear
10:53 PM 46.9 °F - 43.0 °F 86% 29.92 in 10.0 mi South 4.6 mph - N/A   Scattered Clouds
11:53 PM 43.0 °F 40.3 °F 41.0 °F 93% 29.91 in 10.0 mi SSW 4.6 mph - N/A   Clear